AXM138 WMKK-VHHH

Flight info

Callsign AXM138
Flight time N/A
Altitude 37000
Route WMKK/15 KIMAT Y344 VPK L629 DOLOX M771 DUDIS/K0854F370 M771 DOSUT/N0457F370 M771 DULOP Q1 CARSO V551 CYBER V542 BETTY
Aircraft A320/M-SDE3FGHIRWY/LB1

Departure

Time N/A
Airport Kuala Lumpur International Airport (WMKK)

Arrival

Time 2026-04-30 18:38
Airport Hong Kong International Airport (VHHH)
Time Latitude Longitude Altitude Speed Heading
2026-04-30 17:39 3.35506 102.97372 26501 ft 475 kts 65°
2026-04-30 17:41 3.46563 103.21265 28815 ft 472 kts 66°
2026-04-30 17:42 3.49309 103.27221 29390 ft 471 kts 66°
2026-04-30 17:42 3.53446 103.36141 30249 ft 470 kts 66°
2026-04-30 17:43 3.56197 103.42088 30840 ft 470 kts 66°
2026-04-30 17:44 3.60297 103.50966 31789 ft 467 kts 66°
2026-04-30 17:44 3.64372 103.59793 32712 ft 464 kts 66°
2026-04-30 17:46 3.78054 103.89442 35666 ft 458 kts 66°
2026-04-30 17:47 4.04598 104.33182 36853 ft 461 kts 55°
2026-04-30 17:48 4.56949 105.04846 36836 ft 459 kts 54°
2026-04-30 17:49 4.89466 105.43347 36906 ft 458 kts 33°
2026-04-30 17:50 5.32383 105.71331 36935 ft 460 kts 33°
2026-04-30 17:52 5.96869 106.13422 36940 ft 461 kts 33°
2026-04-30 17:54 6.93616 106.76791 36939 ft 462 kts 33°
2026-04-30 17:56 7.79782 107.33577 36953 ft 463 kts 33°
2026-04-30 17:58 8.44522 107.76404 36951 ft 463 kts 33°
2026-04-30 18:00 9.30783 108.33770 36950 ft 464 kts 33°
2026-04-30 18:01 9.84570 108.69702 36955 ft 464 kts 33°
2026-04-30 18:02 10.49366 109.13114 36954 ft 466 kts 33°
2026-04-30 18:04 11.14386 109.56868 36988 ft 468 kts 32°
2026-04-30 18:06 12.01513 110.14458 36976 ft 466 kts 32°
2026-04-30 18:08 12.77321 110.66217 36967 ft 472 kts 33°
2026-04-30 18:10 13.64249 111.27281 36983 ft 475 kts 33°
2026-04-30 18:11 14.40567 111.81117 36988 ft 475 kts 33°
2026-04-30 18:13 14.91217 112.16837 36987 ft 477 kts 33°
2026-04-30 18:14 15.46127 112.55581 36990 ft 479 kts 32°
2026-04-30 18:15 16.12133 113.02532 37006 ft 481 kts 32°
2026-04-30 18:16 16.56339 113.34150 37008 ft 481 kts 33°
2026-04-30 18:17 16.78432 113.50046 37012 ft 482 kts 33°
2026-04-30 18:18 17.11654 113.73940 37004 ft 483 kts 32°
2026-04-30 18:18 17.33877 113.89775 37008 ft 484 kts 32°
2026-04-30 18:19 17.56197 114.05752 37013 ft 485 kts 32°
2026-04-30 18:19 17.78515 114.21783 37024 ft 486 kts 32°
2026-04-30 18:20 18.00852 114.37857 37037 ft 486 kts 32°
2026-04-30 18:20 18.23317 114.53675 36999 ft 483 kts 21°
2026-04-30 18:20 18.36069 114.56991 37022 ft 477 kts
2026-04-30 18:21 18.49089 114.59893 37032 ft 477 kts
2026-04-30 18:21 18.75182 114.65604 37029 ft 477 kts
2026-04-30 18:22 19.01224 114.70884 36988 ft 471 kts 356°
2026-04-30 18:22 19.40163 114.67654 37019 ft 468 kts 351°
2026-04-30 18:23 19.65934 114.65456 37039 ft 467 kts 351°
2026-04-30 18:23 19.91856 114.63258 37038 ft 466 kts 351°
2026-04-30 18:24 20.30589 114.59969 37037 ft 465 kts 350°
2026-04-30 18:25 20.56362 114.57760 37042 ft 464 kts 350°
2026-04-30 18:25 20.82156 114.55513 36344 ft 473 kts 350°
2026-04-30 18:25 20.95442 114.55491 33432 ft 474 kts 355°
2026-04-30 18:26 21.20951 114.55654 28390 ft 436 kts 355°
2026-04-30 18:26 21.32914 114.55750 25865 ft 424 kts 356°
2026-04-30 18:26 21.44529 114.55852 23370 ft 412 kts 356°
2026-04-30 18:27 21.64206 114.48137 19390 ft 352 kts 308°
2026-04-30 18:27 21.70713 114.40638 17711 ft 337 kts 310°
2026-04-30 18:28 21.83028 114.26430 12694 ft 310 kts 310°
2026-04-30 18:28 21.88677 114.19870 10026 ft 287 kts 309°
2026-04-30 18:28 21.95829 114.06468 8493 ft 239 kts 297°
2026-04-30 18:29 21.99186 113.99962 7950 ft 246 kts 297°
2026-04-30 18:29 22.03735 113.91148 7180 ft 250 kts 298°
2026-04-30 18:30 22.05423 113.87866 6895 ft 250 kts 298°
2026-04-30 18:30 22.07108 113.84583 6609 ft 250 kts 298°
2026-04-30 18:31 22.07951 113.82941 6465 ft 250 kts 298°
2026-04-30 18:31 22.09643 113.79657 6181 ft 250 kts 298°
2026-04-30 18:32 22.12007 113.76938 5627 ft 256 kts 330°
2026-04-30 18:32 22.13641 113.76096 5127 ft 261 kts 337°
2026-04-30 18:32 22.16878 113.74505 4558 ft 252 kts 336°
2026-04-30 18:33 22.18465 113.73716 4229 ft 249 kts 337°
2026-04-30 18:33 22.21538 113.72784 3807 ft 213 kts 11°
2026-04-30 18:33 22.22870 113.73343 3520 ft 209 kts 34°
2026-04-30 18:34 22.24073 113.74183 3215 ft 202 kts 34°
2026-04-30 18:34 22.26283 113.75825 2717 ft 185 kts 46°
2026-04-30 18:34 22.26952 113.76978 2462 ft 181 kts 69°
2026-04-30 18:35 22.27366 113.78260 2225 ft 180 kts 70°
2026-04-30 18:35 22.27780 113.79544 1994 ft 180 kts 70°
2026-04-30 18:35 22.28187 113.80805 1773 ft 172 kts 70°
2026-04-30 18:36 22.28903 113.83016 1372 ft 139 kts 70°
2026-04-30 18:36 22.29213 113.83977 1190 ft 133 kts 70°
2026-04-30 18:36 22.29807 113.85820 841 ft 129 kts 70°
2026-04-30 18:37 22.30108 113.86746 659 ft 129 kts 70°
2026-04-30 18:37 22.30406 113.87664 494 ft 130 kts 70°
2026-04-30 18:37 22.30702 113.88581 320 ft 130 kts 71°
2026-04-30 18:37 22.30998 113.89499 125 ft 129 kts 71°
2026-04-30 18:38 22.31278 113.90371 36 ft 110 kts 71°
2026-04-30 18:38 22.31475 113.90978 36 ft 60 kts 71°
2026-04-30 18:38 22.31603 113.91371 36 ft 52 kts 71°
2026-04-30 18:38 22.31660 113.91598 36 ft 25 kts 86°
2026-04-30 18:39 22.31645 113.91769 36 ft 19 kts 101°
2026-04-30 18:39 22.31619 113.91914 36 ft 14 kts 101°
2026-04-30 18:39 22.31603 113.92022 36 ft 15 kts 142°
2026-04-30 18:39 22.31566 113.92120 35 ft 17 kts 72°
2026-04-30 18:40 22.31608 113.92249 35 ft 20 kts 71°
2026-04-30 18:40 22.31652 113.92400 35 ft 16 kts 87°
2026-04-30 18:40 22.31609 113.92502 34 ft 16 kts 115°
2026-04-30 18:40 22.31552 113.92593 35 ft 12 kts 171°
2026-04-30 18:41 22.31508 113.92573 35 ft 4 kts 206°
2026-04-30 18:41 22.31486 113.92561 35 ft 4 kts 206°
2026-04-30 18:41 22.31469 113.92552 33 ft 0 kts 206°